Flag for Switzerland Weather past 2 weeks in Langenthal, Bern, Switzerland

Now
56 °F

Cool.


Feels Like: 56 °F
Forecast: 37 / 66 °F
Wind: 3 mph from North

Location: Wynau

Current Time: Sep 1, 2014 at 10:32:58 AM

Latest Report: Sep 1, 2014 at 9:00 AM


Visibility: N/A

Pressure: 30.13 "Hg

Humidity: 86%

Dew point: 51 °F

Location of LangenthalLocation

Historic Weather in Langenthal — Graph

°F

Langenthal temperature yesterday

Maximum temperature yesterday: 67 °F (at 12:00 PM)
Minimum temperature yesterday: 53 °F (at 11:00 PM)
Average temperature yesterday: 59 °F

Past Weeks' High & Low Weather Summary

 TemperatureHumidityPressure
High78 °F (Aug 28, 4:00 PM)100% (Aug 21, 7:00 AM)30.19 "Hg (Aug 21, 7:00 AM)
Low47 °F (Aug 25, 3:00 AM)36% (Aug 18, 4:00 PM)29.78 "Hg (Aug 26, 6:00 PM)
Average60 °F78%30.01 "Hg
* Reported Aug 17 9:00 AM — Sep 1 9:00 AM, Langenthal, Weather by CustomWeather, © 2014

Note: Actual official high and low records may vary slightly from our data, if they occured in-between our weather recording intervals... More about our weather records

Advertising

Langenthal weather history for previous 24 hours

 ConditionsComfort  
Time TempWeatherWind HumidityBarometerVisibility
9:00 AM
Sep 1
56 °FCool.3 mph86%30.13 "HgN/A
8:00 AM54 °FCool.1 mph95%30.11 "HgN/A
7:00 AM54 °FCool.1 mph97%30.09 "HgN/A
6:00 AM53 °FCool.1 mph96%30.09 "HgN/A
5:00 AM54 °FCool.1 mph97%30.09 "HgN/A
4:00 AM54 °FCool.1 mph96%30.08 "HgN/A
3:00 AM54 °FCool.1 mph95%30.07 "HgN/A
2:00 AM54 °FCool.No wind99%30.07 "HgN/A
1:00 AM55 °FCool.1 mph96%30.06 "HgN/A
12:00 AM55 °FCool.1 mph98%30.06 "HgN/A
11:00 PM
Aug 31
53 °FCool.1 mph99%30.08 "HgN/A
10:00 PM54 °FCool.3 mph97%30.08 "HgN/A
9:00 PM55 °FCool.2 mph97%30.07 "HgN/A
8:00 PM56 °FCool.3 mph89%30.04 "HgN/A
7:00 PM55 °FCool.2 mph92%30.04 "HgN/A
6:00 PM56 °FCool.5 mph85%30.04 "HgN/A
5:00 PM57 °FCool.1 mph90%30.01 "HgN/A
4:00 PM58 °FCool.5 mph74%30.02 "HgN/A
3:00 PM60 °FCool.6 mph71%30.02 "HgN/A
2:00 PM62 °FCool.5 mph73%30.01 "HgN/A
1:00 PM64 °FMild.5 mph71%30.01 "HgN/A
12:00 PM67 °FMild.5 mph72%29.99 "HgN/A
11:00 AM65 °FMild.5 mph77%30.01 "HgN/A
10:00 AM63 °FMild.5 mph81%30.02 "HgN/A
Weather by CustomWeather, © 2014

See weather overviewHow to use our weather pages